Tracking 32420 objects as of 8-Dec-2025
HD Live streaming from Space Station
objects crossing your sky now

ELEKTRON 3

Track ELEKTRON 3 now!
10-day predictions
ELEKTRON 3 is classified as:


NORAD ID: 829
Int'l Code: 1964-038A
Perigee: 417.8 km
Apogee: 6,072.1 km
Inclination: 60.8 °
Period: 156.4 minutes
Semi major axis: 9615 km
RCS: 2.8255 m2 (large)
Launch date: July 10, 1964
Source: Commonwealth of Independent States (former USSR) (CIS)
Launch site: TYURATAM MISSILE AND SPACE COMPLEX (TTMTR)
Your satellite tracking list
Your tracking list is empty




NASA's NSSDC Master Catalog

Two Line Element Set (TLE):
1 00829U 64038A   25342.35207558  .00001634  00000-0  46156-3 0  9990
2 00829  60.8183 105.1268 2940040 297.9081  35.4992  9.20689428997864
Source of the keplerian elements: AFSPC